Showing default

CENTISPACE-1 S8, 62577

Orbit data source: Space-Track

CENTISPACE-1 S8, 62577 is a payload satellite owned by Centispace (CN) in LEO that was launched on Mon, 13 Jan 2025 UTC via a JIELONG-3 launch vehicle from the Yellow Sea Launch Area, China (YSLA). Payload-class satellites include a variety of spacecraft equipped with specific instruments for various scientific and technological missions. These include communications satellites like Starlink; space stations such as the ISS; scientific satellites like the Hubble; Earth observation satellites from companies like Planet Labs, Umbra, and HawkEye 360; GPS; miniature CubeSats for education and research; and military/defense satellites.

Loading next visibility...
Identifier
62577, 2025-007C
Orbit
LEO
Country
Flag of CNCN / PRC
Related business
Manufacturer
DFH Shenzhen
Mission
Operational Commercial Nav/Com
Bus & Motor
WK01, Unknown motor
Mass
140 kg wet, 140 kg dry
Launch date (UTC)
2025-01-13 (11 months ago)
Launch vehicle
JIELONG-3
Launch site
Yellow Sea Launch Area, China (YSLA)
Object type
Payload
Rocket body
Debris
Shape & HBR
Box + 2 Pan, 0.9 m
Radar Cross Section
0.833 m², Medium (>0.1 m² and < 1m²)

Expand to show TLE details & history
Last TLE update: 10 hours ago

TLE from 10 hours ago
0 CENTISPACE-1 S8
1 62577U 25007C   25351.88241781  .00000072  00000-0  11294-3 0  9995
2 62577  54.9845 215.3551 0008725 276.2939  83.7040 14.16511009 49526
Epoch: 2025-12-17T21:10Z
TLE epoch observation values (Epoch: 2025-12-17T21:10:40.898Z)
Latitude
-0.00003°
Longitude
170.93877°
Altitude
837.531 km
Speed
7.435 km/s
True Right ascension
14h 21m 25s
True Declination
0° 00' 00"
Sunlit
Object was in daylight at epoch
Visualization orbit readout
Latitude
Unknown
Longitude
Unknown
Altitude
Unknown
Speed
Unknown
Apparent Right ascension
Unknown
Apparent Declination
Unknown
Sunlit
N/A
Visualization observer readout
Local Sidereal Time
05:32:59
Azimuth
Unknown
Elevation
Unknown
Doppler factor
Unknown
Orbital elements
Apogee altitude
843.439 km
Perigee altitude
830.848 km
Semi-major axis
7,215.28 km
Eccentricity
0.00087
Inclination
54.9845°
RAAN
215.3551°
Arg. of periapsis
276.2939°
True anomaly
83.80339°
Mean anomaly
83.704°
Eccentric anomaly
83.75369°
Mean motion
3.54131 °/min
Orbital period
101.66 mins
BSTAR
0.00011294
Loading maneuver chart data...
Computing Atmospheric mass density...
Loading historical data...
Loading historical data...
Loading historical data...
Loading historical data...
Loading historical data...
Loading historical data...
Loading historical data...

Documentation

Showing up to 5 results
|